| time (UTC) | temp C | wind direction | speed KPH | gust KPH | rain 1hr cm | rain 24hr cm | rain mn cm | humidity % | barometer mb |
| 20260903174520 | 22 | 249 | 6.4 | 16.1 | 0.00 | 0.00 | 0.00 | 25 | 1026.2 |
| 20260903173520 | 22 | 235 | 8.0 | 19.3 | 0.00 | 0.00 | 0.00 | 27 | 1026.2 |
| 20260903172520 | 22 | 254 | 9.7 | 14.5 | 0.00 | 0.00 | 0.00 | 28 | 1026.3 |
| 20260903171520 | 22 | 223 | 8.0 | 14.5 | 0.00 | 0.00 | 0.00 | 27 | 1026.3 |
| 20260903170521 | 21 | 202 | 8.0 | 14.5 | 0.00 | 0.00 | 0.00 | 27 | 1026.3 |
| 20260903165517 | 21 | 203 | 8.0 | 14.5 | 0.00 | 0.00 | 0.00 | 27 | 1026.3 |
| 20260903164521 | 21 | 223 | 8.0 | 14.5 | 0.00 | 0.00 | 0.00 | 29 | 1026.3 |
| 20260903163521 | 21 | 255 | 8.0 | 12.9 | 0.00 | 0.00 | 0.00 | 29 | 1026.3 |
| 20260903162521 | 21 | 315 | 8.0 | 12.9 | 0.00 | 0.00 | 0.00 | 32 | 1026.1 |
| 20260903161518 | 21 | 320 | 9.7 | 17.7 | 0.00 | 0.00 | 0.00 | 33 | 1026.0 |
| 20260903160518 | 20 | 286 | 9.7 | 17.7 | 0.00 | 0.00 | 0.00 | 34 | 1026.2 |
| 20260903155518 | 20 | 288 | 11.3 | 20.9 | 0.00 | 0.00 | 0.00 | 35 | 1026.3 |
| 20260903154519 | 20 | 272 | 11.3 | 17.7 | 0.00 | 0.00 | 0.00 | 35 | 1026.5 |
| 20260903153516 | 20 | 282 | 14.5 | 22.5 | 0.00 | 0.00 | 0.00 | 35 | 1026.5 |
| 20260903152519 | 20 | 287 | 9.7 | 17.7 | 0.00 | 0.00 | 0.00 | 35 | 1026.5 |
| 20260903151522 | 20 | 279 | 8.0 | 16.1 | 0.00 | 0.00 | 0.00 | 36 | 1026.6 |
| 20260903150543 | 20 | 227 | 6.4 | 11.3 | 0.00 | 0.00 | 0.00 | 35 | 1026.7 |
| 20260903145517 | 19 | 231 | 9.7 | 16.1 | 0.00 | 0.00 | 0.00 | 37 | 1026.8 |
| 20260903144517 | 18 | 209 | 12.9 | 17.7 | 0.00 | 0.00 | 0.00 | 41 | 1026.8 |
| 20260903143517 | 18 | 186 | 16.1 | 20.9 | 0.00 | 0.00 | 0.00 | 41 | 1026.8 |
| 20260903142517 | 18 | 193 | 16.1 | 24.1 | 0.00 | 0.00 | 0.00 | 43 | 1026.7 |
| 20260903141517 | 17 | 188 | 17.7 | 25.7 | 0.00 | 0.00 | 0.00 | 45 | 1026.8 |
| 20260903132519 | 15 | 190 | 12.9 | 17.7 | 0.00 | 0.00 | 0.00 | 51 | 1026.3 |
| 20260903131518 | 14 | 187 | 11.3 | 16.1 | 0.00 | 0.00 | 0.00 | 54 | 1026.1 |
| 20260903130519 | 13 | 204 | 9.7 | 14.5 | 0.00 | 0.00 | 0.00 | 54 | 1026.0 |
| 20260903125519 | 13 | 185 | 8.0 | 12.9 | 0.00 | 0.00 | 0.00 | 54 | 1026.1 |
| 20260903124519 | 13 | 185 | 9.7 | 12.9 | 0.00 | 0.00 | 0.00 | 56 | 1025.9 |
| 20260903123540 | 14 | 210 | 9.7 | 14.5 | 0.00 | 0.00 | 0.00 | 50 | 1025.8 |
| 20260903122520 | 14 | 180 | 8.0 | 11.3 | 0.00 | 0.00 | 0.00 | 52 | 1025.8 |
| 20260903121520 | 15 | 226 | 9.7 | 14.5 | 0.00 | 0.00 | 0.00 | 47 | 1025.7 |
| 20260903120520 | 13 | 181 | 8.0 | 12.9 | 0.00 | 0.00 | 0.00 | 57 | 1025.6 |
| 20260903115520 | 13 | 197 | 9.7 | 14.5 | 0.00 | 0.00 | 0.00 | 55 | 1025.6 |
| 20260903114520 | 13 | 257 | 4.8 | 11.3 | 0.00 | 0.00 | 0.00 | 53 | 1025.4 |
| 20260903113530 | 14 | 209 | 4.8 | 8.0 | 0.00 | 0.00 | 0.00 | 52 | 1025.6 |
| 20260903112541 | 14 | 181 | 8.0 | 14.5 | 0.00 | 0.00 | 0.00 | 51 | 1025.4 |
| 20260903111541 | 13 | 174 | 9.7 | 11.3 | 0.00 | 0.00 | 0.00 | 52 | 1025.4 |
| 20260903110521 | 14 | 116 | 4.8 | 9.7 | 0.00 | 0.00 | 0.00 | 50 | 1025.3 |
| 20260903105521 | 13 | 143 | 8.0 | 12.9 | 0.00 | 0.00 | 0.00 | 50 | 1025.4 |
| 20260903104521 | 13 | 89 | 6.4 | 9.7 | 0.00 | 0.00 | 0.00 | 54 | 1025.5 |
| 20260903103530 | 13 | 126 | 4.8 | 8.0 | 0.00 | 0.00 | 0.00 | 51 | 1025.5 |
| 20260903102522 | 13 | 128 | 6.4 | 11.3 | 0.00 | 0.00 | 0.00 | 52 | 1025.4 |
| 20260903101536 | 13 | 143 | 8.0 | 11.3 | 0.00 | 0.00 | 0.00 | 50 | 1025.4 |
| 20260903100516 | 13 | 94 | 4.8 | 8.0 | 0.00 | 0.00 | 0.00 | 53 | 1025.5 |
| 20260903095522 | 13 | 129 | 4.8 | 11.3 | 0.00 | 0.00 | 0.00 | 56 | 1025.4 |
| 20260903094531 | 15 | 119 | 3.2 | 6.4 | 0.00 | 0.00 | 0.00 | 50 | 1025.3 |
| 20260903093551 | 15 | 119 | 3.2 | 4.8 | 0.00 | 0.00 | 0.00 | 46 | 1025.5 |
| 20260903092532 | 15 | 128 | 3.2 | 6.4 | 0.00 | 0.00 | 0.00 | 45 | 1025.5 |
| 20260903091517 | 15 | 114 | 3.2 | 6.4 | 0.00 | 0.00 | 0.00 | 49 | 1025.5 |
| 20260903090537 | 16 | 146 | 6.4 | 11.3 | 0.00 | 0.00 | 0.00 | 46 | 1025.5 |
| 20260903085517 | 17 | 154 | 3.2 | 9.7 | 0.00 | 0.00 | 0.00 | 40 | 1025.6 |
| 20260903084517 | 16 | 198 | 3.2 | 6.4 | 0.00 | 0.00 | 0.00 | 41 | 1025.6 |
| 20260903083517 | 16 | 351 | 4.8 | 8.0 | 0.00 | 0.00 | 0.00 | 41 | 1025.5 |
| 20260903082538 | 16 | 123 | 4.8 | 11.3 | 0.00 | 0.00 | 0.00 | 41 | 1025.5 |
| 20260903081518 | 16 | 111 | 4.8 | 9.7 | 0.00 | 0.00 | 0.00 | 42 | 1025.5 |
| 20260903080518 | 16 | 239 | 6.4 | 19.3 | 0.00 | 0.00 | 0.00 | 46 | 1025.6 |
| 20260903075518 | 15 | 102 | 4.8 | 11.3 | 0.00 | 0.00 | 0.00 | 46 | 1025.6 |
| 20260903074518 | 14 | 152 | 6.4 | 9.7 | 0.00 | 0.00 | 0.00 | 50 | 1025.7 |
| 20260903073518 | 14 | 104 | 3.2 | 4.8 | 0.00 | 0.00 | 0.00 | 51 | 1025.6 |
| 20260903072539 | 15 | 114 | 6.4 | 11.3 | 0.00 | 0.00 | 0.00 | 49 | 1025.5 |
| 20260903071519 | 16 | 153 | 4.8 | 8.0 | 0.00 | 0.00 | 0.00 | 45 | 1025.6 |
| 20260903070519 | 16 | 152 | 11.3 | 17.7 | 0.00 | 0.00 | 0.00 | 43 | 1025.5 |
| 20260903065519 | 15 | 208 | 6.4 | 11.3 | 0.00 | 0.00 | 0.00 | 47 | 1025.7 |
| 20260903064519 | 16 | 129 | 4.8 | 12.9 | 0.00 | 0.00 | 0.00 | 44 | 1025.6 |
| 20260903063517 | 16 | 183 | 8.0 | 17.7 | 0.00 | 0.00 | 0.00 | 43 | 1025.6 |
| 20260903062520 | 16 | 141 | 8.0 | 12.9 | 0.00 | 0.00 | 0.00 | 44 | 1025.6 |
| 20260903061517 | 18 | 268 | 16.1 | 29.0 | 0.00 | 0.00 | 0.00 | 36 | 1025.3 |
| 20260903060520 | 15 | 184 | 4.8 | 8.0 | 0.00 | 0.00 | 0.00 | 43 | 1025.6 |
| 20260903055520 | 15 | 168 | 8.0 | 12.9 | 0.00 | 0.00 | 0.00 | 47 | 1025.6 |
| 20260903054520 | 15 | 160 | 8.0 | 9.7 | 0.00 | 0.00 | 0.00 | 45 | 1025.7 |
| 20260903053521 | 15 | 168 | 8.0 | 11.3 | 0.00 | 0.00 | 0.00 | 44 | 1025.8 |
| 20260903052521 | 15 | 163 | 6.4 | 9.7 | 0.00 | 0.00 | 0.00 | 45 | 1025.8 |
| 20260903051521 | 15 | 142 | 6.4 | 12.9 | 0.00 | 0.00 | 0.00 | 42 | 1026.0 |
| 20260903050521 | 16 | 171 | 9.7 | 16.1 | 0.00 | 0.00 | 0.00 | 40 | 1026.0 |
| 20260903045601 | 16 | 145 | 3.2 | 6.4 | 0.00 | 0.00 | 0.00 | 39 | 1026.1 |
| 20260903044521 | 15 | 155 | 9.7 | 12.9 | 0.00 | 0.00 | 0.00 | 40 | 1026.1 |
| 20260903043522 | 15 | 189 | 4.8 | 9.7 | 0.00 | 0.00 | 0.00 | 41 | 1026.1 |
| 20260903042522 | 16 | 183 | 6.4 | 9.7 | 0.00 | 0.00 | 0.00 | 36 | 1026.1 |
| 20260903041522 | 16 | 141 | 3.2 | 6.4 | 0.00 | 0.00 | 0.00 | 36 | 1026.2 |
| 20260903040522 | 17 | 148 | 8.0 | 14.5 | 0.00 | 0.00 | 0.00 | 36 | 1026.1 |
| 20260903035516 | 17 | 98 | 4.8 | 8.0 | 0.00 | 0.00 | 0.00 | 33 | 1026.1 |
| 20260903034516 | 16 | 44 | 6.4 | 11.3 | 0.00 | 0.00 | 0.00 | 35 | 1026.1 |
| 20260903033517 | 17 | 229 | 6.4 | 11.3 | 0.00 | 0.00 | 0.00 | 32 | 1026.0 |
| 20260903032523 | 18 | 227 | 8.0 | 12.9 | 0.00 | 0.00 | 0.00 | 31 | 1025.8 |
| 20260903031517 | 18 | 245 | 9.7 | 14.5 | 0.00 | 0.00 | 0.00 | 31 | 1025.7 |
| 20260903030517 | 18 | 238 | 8.0 | 12.9 | 0.00 | 0.00 | 0.00 | 31 | 1025.6 |
| 20260903025517 | 18 | 252 | 9.7 | 16.1 | 0.00 | 0.00 | 0.00 | 30 | 1025.5 |
| 20260903024517 | 18 | 254 | 9.7 | 16.1 | 0.00 | 0.00 | 0.00 | 29 | 1025.4 |
| 20260903023558 | 19 | 258 | 11.3 | 16.1 | 0.00 | 0.00 | 0.00 | 29 | 1025.3 |
| 20260903022538 | 19 | 254 | 11.3 | 14.5 | 0.00 | 0.00 | 0.00 | 29 | 1025.3 |
| 20260903021518 | 20 | 259 | 12.9 | 20.9 | 0.00 | 0.00 | 0.00 | 27 | 1025.2 |
| 20260903020539 | 20 | 274 | 14.5 | 22.5 | 0.00 | 0.00 | 0.00 | 26 | 1025.1 |
| 20260903015538 | 20 | 282 | 14.5 | 24.1 | 0.00 | 0.00 | 0.00 | 26 | 1025.0 |
| 20260903014519 | 20 | 266 | 11.3 | 16.1 | 0.00 | 0.00 | 0.00 | 26 | 1024.9 |
| 20260903013519 | 20 | 264 | 11.3 | 16.1 | 0.00 | 0.00 | 0.00 | 25 | 1024.8 |
| 20260903012516 | 21 | 251 | 14.5 | 17.7 | 0.00 | 0.00 | 0.00 | 22 | 1024.8 |
| 20260903011519 | 21 | 245 | 12.9 | 20.9 | 0.00 | 0.00 | 0.00 | 22 | 1024.6 |
| 20260903010517 | 22 | 234 | 9.7 | 20.9 | 0.00 | 0.00 | 0.00 | 22 | 1024.7 |
| 20260903005537 | 23 | 233 | 14.5 | 20.9 | 0.00 | 0.00 | 0.00 | 20 | 1024.6 |
| 20260903004517 | 23 | 243 | 11.3 | 19.3 | 0.00 | 0.00 | 0.00 | 20 | 1024.7 |
| 20260903003537 | 23 | 246 | 16.1 | 29.0 | 0.00 | 0.00 | 0.00 | 20 | 1024.6 |
| 20260903002520 | 24 | 236 | 11.3 | 16.1 | 0.00 | 0.00 | 0.00 | 21 | 1024.6 |
| 20260903001517 | 24 | 241 | 11.3 | 17.7 | 0.00 | 0.00 | 0.00 | 21 | 1024.6 |
| 20260903000538 | 25 | 263 | 17.7 | 24.1 | 0.00 | 0.00 | 0.00 | 20 | 1024.6 |
| 20260902235518 | 25 | 246 | 12.9 | 20.9 | 0.00 | 0.00 | 0.00 | 20 | 1024.5 |
| 20260902234518 | 24 | 256 | 12.9 | 19.3 | 0.00 | 0.00 | 0.00 | 21 | 1024.6 |
| 20260902233521 | 24 | 251 | 9.7 | 14.5 | 0.00 | 0.00 | 0.00 | 21 | 1024.6 |
| 20260902232518 | 24 | 278 | 14.5 | 27.4 | 0.00 | 0.00 | 0.00 | 21 | 1024.7 |
| 20260902231518 | 24 | 294 | 11.3 | 17.7 | 0.00 | 0.00 | 0.00 | 21 | 1024.8 |
| 20260902230519 | 25 | 251 | 11.3 | 19.3 | 0.00 | 0.00 | 0.00 | 21 | 1024.8 |
| 20260902225516 | 25 | 224 | 12.9 | 20.9 | 0.00 | 0.00 | 0.00 | 21 | 1024.9 |
| 20260902224519 | 25 | 270 | 14.5 | 24.1 | 0.00 | 0.00 | 0.00 | 22 | 1024.9 |
| 20260902223539 | 25 | 262 | 17.7 | 27.4 | 0.00 | 0.00 | 0.00 | 21 | 1024.9 |
| 20260902222536 | 25 | 275 | 12.9 | 24.1 | 0.00 | 0.00 | 0.00 | 22 | 1025.0 |
| 20260902221517 | 25 | 283 | 14.5 | 24.1 | 0.00 | 0.00 | 0.00 | 22 | 1025.1 |
| 20260902220528 | 25 | 306 | 9.7 | 19.3 | 0.00 | 0.00 | 0.00 | 23 | 1025.2 |
| 20260902215518 | 25 | 296 | 12.9 | 20.9 | 0.00 | 0.00 | 0.00 | 23 | 1025.3 |
| 20260902214517 | 24 | 304 | 8.0 | 14.5 | 0.00 | 0.00 | 0.00 | 24 | 1025.4 |
| 20260902213517 | 25 | 298 | 8.0 | 14.5 | 0.00 | 0.00 | 0.00 | 24 | 1025.5 |
| 20260902212517 | 24 | 268 | 11.3 | 25.7 | 0.00 | 0.00 | 0.00 | 24 | 1025.6 |
| 20260902211523 | 24 | 216 | 9.7 | 19.3 | 0.00 | 0.00 | 0.00 | 24 | 1025.7 |
| 20260902210518 | 24 | 249 | 9.7 | 19.3 | 0.00 | 0.00 | 0.00 | 24 | 1025.9 |
| 20260902205518 | 24 | 283 | 6.4 | 20.9 | 0.00 | 0.00 | 0.00 | 24 | 1026.0 |
| 20260902204539 | 24 | 245 | 8.0 | 17.7 | 0.00 | 0.00 | 0.00 | 24 | 1026.1 |
| 20260902203538 | 24 | 244 | 8.0 | 14.5 | 0.00 | 0.00 | 0.00 | 24 | 1026.2 |
| 20260902202519 | 23 | 177 | 8.0 | 16.1 | 0.00 | 0.00 | 0.00 | 24 | 1026.3 |
| 20260902201519 | 23 | 250 | 9.7 | 17.7 | 0.00 | 0.00 | 0.00 | 25 | 1026.4 |
| 20260902200519 | 23 | 198 | 9.7 | 14.5 | 0.00 | 0.00 | 0.00 | 25 | 1026.5 |
| 20260902195519 | 24 | 135 | 6.4 | 14.5 | 0.00 | 0.00 | 0.00 | 25 | 1026.7 |
| 20260902194519 | 23 | 173 | 4.8 | 12.9 | 0.00 | 0.00 | 0.00 | 26 | 1026.8 |
| 20260902193516 | 23 | 195 | 11.3 | 27.4 | 0.00 | 0.00 | 0.00 | 25 | 1026.9 |
| 20260902192516 | 23 | 178 | 8.0 | 19.3 | 0.00 | 0.00 | 0.00 | 26 | 1027.0 |
| 20260902191520 | 22 | 194 | 11.3 | 19.3 | 0.00 | 0.00 | 0.00 | 26 | 1027.0 |
| 20260902190520 | 22 | 221 | 8.0 | 12.9 | 0.00 | 0.00 | 0.00 | 26 | 1027.1 |
| 20260902185520 | 22 | 14 | 9.7 | 17.7 | 0.00 | 0.00 | 0.00 | 26 | 1027.4 |
| 20260902184520 | 22 | 19 | 6.4 | 16.1 | 0.00 | 0.00 | 0.00 | 27 | 1027.5 |
| 20260902183521 | 22 | 293 | 8.0 | 16.1 | 0.00 | 0.00 | 0.00 | 27 | 1027.7 |
| 20260902182518 | 22 | 334 | 11.3 | 19.3 | 0.00 | 0.00 | 0.00 | 26 | 1027.8 |
| 20260902181518 | 22 | 316 | 11.3 | 19.3 | 0.00 | 0.00 | 0.00 | 26 | 1027.9 |
| 20260902180518 | 22 | 308 | 9.7 | 22.5 | 0.00 | 0.00 | 0.00 | 25 | 1028.0 |
| 20260902175519 | 22 | 290 | 8.0 | 16.1 | 0.00 | 0.00 | 0.00 | 27 | 1028.0 |